Date,TemperatureHighF,TemperatureAvgF,TemperatureLowF,DewpointHighF,DewpointAvgF,DewpointLowF,HumidityHigh,HumidityAvg,HumidityLow,PressureMaxIn,PressureMinIn,WindSpeedMaxMPH,WindSpeedAvgMPH,GustSpeedMaxMPH,PrecipitationSumIn
2013-2-14,42,36,29,42,34,24,100,93,75,30.11,29.92,16,2,18,0.00
2013-2-15,47,41,33,47,40,28,100,97,71,30.11,29.98,19,4,20,0.00
2013-2-16,44,39,36,44,38,26,100,97,67,29.98,29.63,25,6,25,0.00
2013-2-17,37,27,20,37,22,14,100,80,66,29.76,29.34,45,17,51,0.00
2013-2-18,31,23,18,26,19,14,85,82,80,30.12,29.76,35,15,37,0.00
2013-2-19,47,43,28,39,35,23,80,74,50,30.25,29.61,27,7,33,0.00
2013-2-20,44,34,27,32,27,18,81,73,44,29.88,29.59,26,9,28,0.00
2013-2-21,34,30,27,28,26,23,81,80,79,30.14,29.85,32,12,32,0.00
2013-2-22,38,34,30,31,28,24,80,78,75,30.41,30.14,31,7,31,0.00
2013-2-23,40,36,31,33,29,24,78,74,58,30.40,29.85,23,5,23,0.00
2013-2-24,44,40,33,31,21,8,67,46,26,29.87,29.52,29,11,31,0.00
2013-2-25,42,36,29,42,32,18,100,85,50,30.32,29.87,24,7,25,0.00
2013-2-26,43,36,28,42,33,18,100,90,64,30.39,30.15,16,3,18,0.00
2013-2-27,47,44,41,44,32,21,100,64,41,30.16,29.57,36,10,37,0.00
2013-2-28,44,40,38,41,30,23,100,69,52,29.68,29.54,15,2,16,0.00
2013-3-1,42,38,36,42,32,23,100,78,53,29.71,29.53,20,8,22,0.00
2013-3-2,41,37,36,41,34,29,100,86,75,29.73,29.66,19,5,19,0.00
2013-3-3,39,36,35,39,33,29,100,87,76,29.68,29.62,16,4,19,0.00
2013-3-4,41,36,32,35,32,26,100,85,75,29.74,29.61,25,10,27,0.00
2013-3-5,41,38,34,35,31,29,79,76,70,30.08,29.74,25,8,28,0.00
2013-3-6,41,39,37,41,36,28,100,87,68,30.07,29.85,44,12,44,0.00
2013-3-7,39,37,34,38,28,24,100,69,62,29.88,29.73,48,19,48,0.00
2013-3-8,42,38,35,35,29,24,77,69,65,30.04,29.78,38,16,41,0.00
2013-3-9,40,38,37,33,31,29,78,75,74,30.34,30.01,38,13,38,0.00
2013-3-10,40,38,36,35,31,29,79,76,75,30.43,30.32,17,6,21,0.00
2013-3-11,47,41,36,40,34,29,79,75,67,30.40,30.22,15,3,16,0.00
2013-3-12,51,48,43,44,38,32,75,67,63,30.22,29.85,26,8,26,0.00
2013-4-14,56,49,43,48,42,36,78,76,73,30.21,29.97,20,5,22,0.00
2013-4-15,52,46,42,45,38,31,80,76,63,30.46,30.21,17,5,17,0.00
2013-4-16,55,48,40,49,38,26,79,70,52,30.46,30.16,23,6,25,0.00
2013-4-17,55,50,39,50,40,28,81,67,43,30.38,30.11,24,5,24,0.00
2013-4-18,55,48,38,50,41,29,81,76,62,30.42,30.19,23,5,23,0.00
2013-4-19,64,57,50,51,40,31,72,54,37,30.19,29.78,26,8,33,0.00
2013-4-20,58,52,46,44,35,21,78,56,32,30.19,29.69,28,7,32,0.00
2013-4-21,49,44,40,42,38,35,80,78,72,30.68,30.19,23,8,25,0.00
2013-4-22,49,44,42,43,38,36,80,79,77,30.72,30.56,25,10,26,0.00
2013-4-23,45,44,42,37,29,23,77,55,41,30.56,29.93,29,10,31,0.00
2013-4-24,52,48,44,44,33,21,77,58,38,30.00,29.80,36,11,40,0.00
2013-4-25,57,50,43,50,39,32,81,65,47,30.28,29.92,23,5,26,0.00
2013-4-26,56,48,40,50,40,31,81,74,60,30.44,30.28,15,4,16,0.00
2013-4-27,58,48,37,51,40,24,81,73,52,30.44,30.33,12,2,13,0.00
2013-4-28,60,50,41,54,43,31,82,75,61,30.37,30.28,11,2,12,0.00
2013-4-29,61,51,44,56,44,33,83,77,62,30.31,30.24,13,2,13,0.00
2013-4-30,60,51,41,54,45,35,83,80,74,30.38,30.27,15,3,16,0.00
2013-5-1,54,47,44,47,36,26,77,66,45,30.50,30.37,15,4,15,0.00
2013-5-2,65,52,42,60,42,26,83,70,43,30.49,30.34,20,3,20,0.00
2013-5-3,50,46,44,43,39,35,79,74,66,30.47,30.36,26,8,27,0.00
2013-5-4,50,47,45,44,39,35,80,75,65,30.37,30.30,28,9,28,0.00
2013-5-5,52,47,43,45,39,31,79,75,61,30.32,30.28,18,6,20,0.00
2013-5-6,55,47,43,48,33,23,77,58,40,30.31,30.19,13,3,13,0.00
2013-5-7,70,58,47,62,42,21,80,57,28,30.20,30.09,13,3,15,0.00
2013-5-8,69,61,56,60,46,32,77,57,37,30.17,30.03,20,5,20,0.00
2013-5-9,67,59,51,58,39,24,77,50,29,30.03,29.88,16,4,18,0.00
2013-5-10,69,58,52,62,42,21,80,57,29,29.98,29.91,17,4,19,0.00
2013-5-11,63,58,54,55,35,23,77,44,26,29.97,29.73,28,6,29,0.00
2013-5-12,60,56,52,50,34,21,78,46,23,29.79,29.62,21,6,23,0.00
2013-5-13,56,52,47,49,46,40,81,79,76,30.02,29.80,28,6,28,0.00
2013-5-14,55,50,43,50,44,35,81,80,76,30.08,29.96,23,6,25,0.00
2013-5-15,60,54,47,54,47,39,82,78,63,30.08,29.70,26,6,31,0.00
2013-5-16,67,58,53,60,48,29,83,70,40,29.79,29.66,22,5,23,0.00
2013-5-17,61,56,47,55,50,38,82,79,70,30.24,29.77,22,4,22,0.00
2013-5-18,64,55,46,59,48,35,83,76,59,30.32,30.23,19,3,19,0.00
2013-5-19,67,58,51,60,49,33,83,72,47,30.35,30.25,16,3,17,0.00
2013-5-20,62,58,55,50,34,23,67,41,26,30.25,29.94,22,5,24,0.00
2013-5-21,65,59,55,54,32,21,69,38,24,29.97,29.86,17,4,19,0.00
2013-5-22,64,58,53,51,33,18,67,39,23,29.95,29.89,21,5,21,0.00
2013-5-23,67,62,58,58,38,21,71,43,21,29.95,29.87,29,8,33,0.00
2013-5-24,64,61,56,41,26,18,48,26,21,29.87,29.69,30,6,31,0.00
2013-5-25,56,53,45,46,30,16,70,44,22,29.77,29.65,24,6,28,0.00
2013-5-26,57,51,43,51,42,23,81,73,43,30.08,29.76,26,8,30,0.00
2013-5-27,63,56,50,56,50,43,82,80,73,30.18,30.08,26,7,26,0.00
2013-5-28,66,58,50,60,49,36,83,72,45,30.23,30.17,17,2,17,0.00
2013-5-29,61,58,56,48,34,26,66,42,31,30.23,30.04,22,6,22,0.00
2013-5-30,70,62,57,60,46,29,77,56,33,30.09,30.01,18,6,18,0.00
2013-5-31,79,66,58,72,55,39,83,68,49,30.06,29.98,17,5,17,0.00
2013-6-1,71,63,59,64,51,35,80,64,39,30.02,29.93,20,6,20,0.00
2013-6-2,68,63,60,60,45,32,75,52,35,29.96,29.83,27,8,27,0.00
2013-6-3,64,62,60,48,28,21,57,28,21,29.87,29.78,23,6,23,0.00
2013-6-4,70,62,54,65,49,16,84,69,20,30.07,29.77,19,5,19,0.00
2013-6-5,70,61,53,64,53,29,84,75,39,30.19,30.06,13,3,14,0.00
2013-6-6,69,61,54,68,56,38,100,86,49,30.18,30.08,19,4,19,0.00
2013-6-7,65,57,55,59,39,21,100,53,20,30.08,29.74,25,6,28,0.00
2013-6-8,66,63,59,65,48,21,100,64,18,29.99,29.54,30,8,35,0.00
2013-6-9,74,65,58,68,50,24,84,62,25,30.15,29.99,15,3,19,0.00
2013-6-10,70,62,57,62,50,32,100,67,36,30.16,29.97,22,3,22,0.00
2013-6-11,66,62,59,65,39,24,100,44,24,29.97,29.55,22,6,23,0.00
2013-6-12,70,64,60,70,59,32,100,87,34,29.75,29.55,23,8,27,0.00
2013-6-13,67,60,55,67,56,33,100,85,44,29.80,29.57,27,5,30,0.00
2013-6-14,60,56,53,53,41,28,80,60,36,29.77,29.49,34,10,41,0.00
2013-6-15,73,64,56,68,56,37,84,74,46,29.96,29.73,14,4,15,0.00
2013-6-16,70,63,58,63,52,39,81,68,48,29.96,29.76,21,4,23,0.00
2013-6-17,72,66,61,64,55,45,80,69,54,29.92,29.77,19,4,20,0.00
2013-6-18,74,64,59,66,44,28,80,50,26,29.91,29.83,12,2,14,0.00
2013-6-19,66,61,55,60,48,24,81,64,25,30.16,29.80,23,6,28,0.00
2013-6-20,71,63,55,66,52,32,84,69,39,30.29,30.16,16,3,17,0.00
2013-6-21,70,64,58,65,54,37,84,71,44,30.29,30.22,19,4,23,0.00
2013-6-22,72,65,60,65,55,45,81,71,57,30.25,30.15,16,4,17,0.00
2013-6-23,72,67,63,64,52,35,80,61,32,30.18,30.06,20,5,23,0.00
2013-6-24,75,69,65,65,47,29,75,48,24,30.06,29.85,20,5,23,0.00
2013-6-25,79,71,65,73,59,39,83,67,38,29.89,29.75,17,4,21,0.00
2013-6-26,81,71,66,74,57,40,81,63,38,29.81,29.70,22,3,22,0.00
2013-6-27,69,67,64,58,40,28,71,39,23,29.81,29.73,15,3,15,0.00
2013-6-28,70,68,66,54,38,24,63,35,20,29.73,29.56,23,7,26,0.00
2013-6-29,70,67,66,48,35,23,50,31,20,29.76,29.55,23,7,24,0.00
2013-6-30,72,67,66,60,39,28,66,36,22,29.97,29.74,20,5,20,0.00
2013-7-1,74,69,66,62,43,28,69,41,23,30.11,29.96,25,7,25,0.00
2013-7-2,76,70,67,64,45,24,72,43,19,30.20,30.10,21,6,25,0.00
2013-7-3,76,71,68,66,46,33,72,43,26,30.21,30.16,21,6,22,0.00
2013-7-4,75,71,68,63,47,24,71,45,20,30.16,30.11,20,5,22,0.00
2013-7-5,79,72,68,71,49,21,78,48,16,30.16,30.05,23,4,25,0.00
2013-7-6,80,74,69,72,56,31,78,56,24,30.07,29.93,20,4,21,0.00
2013-7-7,83,75,69,75,59,36,80,59,28,29.98,29.91,16,4,19,0.00
2013-7-8,78,73,70,71,55,32,79,55,25,30.03,29.92,22,5,22,0.00
2013-7-9,79,73,70,71,54,32,79,53,24,30.06,30.00,15,3,15,0.00
2013-7-10,78,73,71,70,47,26,75,42,19,30.04,29.83,22,5,22,0.00
2013-7-11,76,72,70,40,-22,-23,32,0,27,29.88,29.80,21,4,21,0.00
2013-7-12,71,68,66,-23,-23,-23,0,0,100,30.16,29.88,21,4,21,0.00
2013-7-13,82,70,63,-23,-23,-23,0,0,100,30.28,30.15,12,2,12,0.00
2013-7-14,82,74,69,-23,-23,-23,0,0,100,30.27,30.17,16,2,16,0.00
2013-7-15,87,78,70,-23,-23,-23,0,0,100,30.17,30.05,9,1,9,0.00
2013-7-16,84,76,70,-23,-23,-23,0,0,100,30.13,30.04,9,2,9,0.00
2013-7-17,85,75,70,-23,-23,-23,0,0,100,30.16,30.04,9,3,9,0.00
2013-7-18,85,77,71,-23,-23,-23,0,0,100,30.05,29.92,9,3,9,0.00
2013-7-19,82,76,72,-23,-23,-23,0,0,100,29.96,29.77,9,4,9,0.00
2013-7-20,79,76,74,-23,-23,-23,0,0,100,29.79,29.67,9,3,9,0.00
2013-7-21,77,71,67,-23,-23,-23,0,0,100,29.98,29.90,9,2,9,0.00
2013-7-22,77,69,66,-23,-23,-23,0,0,100,29.99,29.87,9,2,9,0.00
2013-7-23,80,73,68,-23,-23,-23,0,0,100,29.88,29.55,9,2,9,0.00
2013-7-24,82,76,72,-23,-23,-23,0,0,100,29.85,29.56,9,3,9,0.00
2013-7-25,73,66,64,-23,-23,-23,0,0,100,30.02,29.85,9,3,9,0.00
2013-7-26,70,67,65,-23,-23,-23,0,0,100,30.04,29.81,9,3,9,0.00
2013-7-27,77,70,64,-23,-23,-23,0,0,100,30.07,29.99,9,3,9,0.00
2013-7-28,78,71,68,-23,-23,-23,0,0,100,30.04,29.88,9,2,9,0.00
2013-7-29,78,72,67,-23,-23,-23,0,0,100,30.04,29.98,9,3,9,0.00
2013-7-30,78,71,67,-23,-23,-23,0,0,100,30.09,30.01,9,3,9,0.00
2013-7-31,78,70,64,-23,-23,-23,0,0,100,30.11,30.05,9,2,9,0.00
2013-8-1,79,71,66,-23,-23,-23,0,0,100,30.07,29.89,14,3,16,0.00
2013-8-2,76,70,66,-23,-23,-23,0,0,100,29.91,29.79,13,3,19,0.00
2013-8-3,72,69,66,-23,-23,-23,0,0,100,29.90,29.81,19,3,19,0.00
2013-8-4,76,70,64,-23,-23,-23,0,0,100,29.84,29.76,26,4,26,0.00
2013-8-5,74,67,61,-23,-23,-23,0,0,100,30.05,29.83,23,6,25,0.00
2013-8-6,76,68,60,8,-23,-23,11,0,5,30.18,30.03,10,2,11,0.00
2013-8-7,75,67,58,-23,-23,-40,0,0,100,30.21,30.15,13,2,15,0.00
2013-8-8,76,69,63,-23,-23,-23,0,0,100,30.16,30.07,17,3,20,0.00
2013-8-9,73,71,68,73,-12,-23,100,11,17,30.08,29.80,26,7,30,0.00
2013-8-10,79,73,67,-23,-23,-23,0,0,100,29.99,29.86,17,5,19,0.00
2013-8-11,77,70,64,66,-22,-23,84,1,68,30.07,29.96,16,4,16,0.00
2013-8-12,74,68,63,74,32,-23,100,60,72,30.07,29.92,17,2,21,0.00
2013-8-13,71,68,66,68,-15,-23,100,7,1,29.92,29.65,19,2,23,0.00
2013-8-14,73,68,65,65,-16,-23,100,7,11,29.93,29.68,25,5,25,0.00
2013-8-15,71,66,61,-23,-23,-23,0,0,100,30.16,29.93,20,5,23,0.00
2013-8-16,74,67,61,74,44,-23,100,73,100,30.22,30.13,16,2,20,0.00
2013-8-17,78,69,61,66,10,-23,100,34,1,30.29,30.20,10,2,12,0.00
2013-8-18,75,66,60,61,8,-23,99,27,1,30.29,30.12,11,1,11,0.00
2013-8-19,75,66,58,53,34,-23,61,33,1,30.12,29.96,15,2,15,0.00
2013-8-20,79,71,66,62,22,-23,83,27,1,30.11,29.97,11,2,12,0.00
2013-8-21,81,71,65,60,28,-23,81,29,1,30.14,30.05,15,2,16,0.00
2013-8-22,76,71,68,53,34,-6,56,27,6,30.06,29.86,20,5,20,0.00
2013-8-23,75,69,65,38,20,-23,29,16,2,30.07,29.81,25,6,26,0.00
2013-8-24,68,66,55,31,-8,-40,26,6,1,30.36,30.07,22,6,22,0.00
2013-8-25,76,66,54,38,10,-40,38,13,1,30.37,30.24,15,2,15,0.00
2013-8-26,73,68,64,50,37,-23,48,33,1,30.24,29.91,22,5,23,0.00
2013-8-27,69,67,65,49,30,-23,50,26,12,29.92,29.82,15,3,15,0.00
2013-8-28,71,66,64,46,26,-23,45,23,2,29.94,29.85,13,3,13,0.00
2013-8-29,67,65,62,36,22,-23,34,19,2,30.03,29.92,20,7,23,0.00
2013-8-30,70,66,62,37,27,-23,32,23,2,30.01,29.88,18,5,18,0.00
2013-8-31,75,70,67,43,30,-23,39,23,4,29.88,29.84,22,6,25,0.00
2013-9-1,77,71,69,45,28,-23,40,26,1,29.90,29.84,19,6,22,0.00
2013-9-2,79,72,70,45,27,-23,40,22,1,29.88,29.74,19,4,19,0.00
2013-9-3,75,70,66,51,38,-23,49,34,3,29.81,29.71,15,3,15,0.00
2013-9-4,74,68,65,49,9,-23,54,18,1,29.95,29.80,17,5,20,0.00
2013-9-5,74,66,62,53,28,-23,57,34,2,30.11,29.89,22,4,22,0.00
2013-9-6,68,62,54,36,-18,-40,40,4,1,30.23,30.11,15,3,15,0.00
2013-9-7,70,63,54,47,8,-40,51,21,1,30.16,29.90,22,3,22,0.00
2013-9-8,74,67,61,42,12,-23,44,18,1,30.08,29.73,23,6,25,0.00
2013-9-9,67,61,58,29,-16,-40,31,4,1,30.26,30.08,16,3,19,0.00
2013-9-10,72,66,60,37,17,-23,34,18,1,30.22,30.06,22,5,23,0.00
2013-9-11,76,71,67,55,37,-23,54,32,1,30.12,30.01,20,6,21,0.00
2013-9-12,75,70,68,56,46,-23,59,45,9,30.02,29.73,29,7,29,0.00
2013-9-13,74,69,64,52,41,-23,55,38,13,29.73,29.56,16,4,17,0.00
2013-9-14,68,64,61,40,26,-23,44,28,3,30.04,29.72,16,4,21,0.00
2013-9-15,68,62,56,40,22,-40,39,27,9,30.17,30.04,17,3,17,0.00
2013-9-16,68,62,56,56,39,-40,67,49,28,30.18,30.02,24,3,26,0.00
2013-9-17,59,55,53,47,5,-40,68,25,2,30.40,30.18,28,8,29,0.00
2013-9-18,68,59,53,47,-4,-40,73,17,1,30.35,30.20,13,3,15,0.00
2013-9-19,69,61,55,51,33,-23,73,42,2,30.20,30.06,17,2,17,0.00
2013-9-20,74,63,56,52,32,-23,69,38,1,30.10,30.02,12,2,12,0.00
2013-9-21,75,66,59,50,34,-23,57,35,3,30.08,29.79,21,4,21,0.00
2013-9-22,70,66,59,52,27,-23,56,30,2,29.80,29.65,24,6,24,0.00
2013-9-23,63,57,53,-23,-36,-40,0,0,100,30.01,29.80,23,6,23,0.00
2013-9-24,61,55,51,-23,-37,-40,2,0,1,30.02,29.85,19,5,19,0.00
2013-9-25,63,57,50,0,-33,-40,10,0,1,30.01,29.90,15,3,15,0.00
2013-9-26,61,57,50,4,-33,-40,12,0,1,30.12,29.98,17,4,19,0.00
2013-9-27,61,59,57,21,-22,-40,24,2,1,30.26,30.10,19,7,20,0.00
2013-9-28,66,60,54,32,-3,-40,36,10,1,30.30,30.24,14,4,15,0.00
2013-9-29,63,58,53,35,11,-40,41,17,2,30.28,30.09,17,4,17,0.00
2013-9-30,64,60,57,39,5,-40,49,15,2,30.10,29.96,19,4,19,0.00
2013-10-1,69,62,58,23,-15,-23,24,3,1,29.96,29.85,16,5,17,0.00
2013-10-2,74,66,60,37,-7,-23,43,8,1,29.96,29.81,21,3,21,0.00
2013-10-3,75,65,58,8,-22,-40,9,0,1,30.09,29.94,13,2,13,0.00
2013-10-4,74,63,58,4,-23,-40,10,0,1,30.08,29.99,11,2,12,0.00
2013-10-5,65,61,59,42,1,-23,51,14,1,30.13,30.04,10,2,11,0.00
2013-10-6,65,61,58,44,-7,-23,58,9,1,30.19,30.11,18,4,20,0.00
2013-10-7,75,67,63,41,10,-23,42,16,1,30.13,29.87,24,7,24,0.00
2013-10-8,65,60,57,40,-9,-40,41,8,1,30.34,29.88,20,7,21,0.00
2013-10-9,60,57,56,-23,-37,-40,1,0,1,30.43,30.34,24,8,24,0.00
2013-10-10,63,59,56,-13,-29,-40,4,0,1,30.34,30.12,18,7,19,0.00
2013-10-11,62,60,58,-23,-25,-40,0,0,100,30.13,30.06,25,7,25,0.00
2013-10-12,62,59,55,-23,-31,-40,0,0,100,30.36,30.11,28,8,28,0.00
2013-10-13,59,55,51,-23,-40,-40,0,0,100,30.43,30.34,23,6,23,0.00
2013-10-14,61,54,47,-23,-36,-40,0,0,100,30.44,30.29,12,2,13,0.00
2013-10-15,62,56,49,-23,-35,-40,0,0,100,30.31,30.18,15,3,17,0.00
2013-10-16,60,58,55,29,-24,-40,32,4,1,30.18,29.92,16,4,17,0.00
2013-10-17,63,60,58,-13,-28,-40,4,0,1,29.92,29.78,13,3,13,0.00
2013-10-18,67,62,56,-23,-25,-40,0,0,100,29.94,29.67,22,4,23,0.00
2013-10-19,64,58,56,-23,-33,-40,0,0,100,30.02,29.79,20,4,20,0.00
2013-10-20,61,58,55,-23,-34,-40,0,0,100,30.05,29.75,22,4,22,0.00
2013-10-21,64,56,48,-23,-34,-40,0,0,100,30.17,30.05,15,2,20,0.00
2013-10-22,68,60,53,-23,-31,-40,0,0,100,30.07,29.73,13,2,13,0.00
2013-10-23,58,52,46,-40,-40,-40,0,0,100,29.82,29.61,16,4,16,0.00
2013-10-24,52,50,47,-40,-40,-40,0,0,100,29.94,29.68,23,8,23,0.00
2013-10-25,52,48,46,-40,-40,-40,0,0,100,30.22,29.94,23,8,23,0.00
2013-10-26,59,52,41,-23,-40,-40,0,0,100,30.25,29.92,26,6,26,0.00
2013-10-27,59,53,50,-23,-40,-40,0,0,100,30.12,29.86,20,7,20,0.00
2013-10-28,57,52,44,-40,-40,-40,0,0,100,30.36,30.11,19,5,23,0.00
2013-10-29,54,49,43,-40,-40,-40,0,0,100,30.45,30.36,17,2,17,0.00
2013-10-30,58,50,41,-40,-40,-40,0,0,100,30.44,30.24,15,1,15,0.00
2013-10-31,64,58,49,-23,-30,-40,0,0,100,30.30,29.91,20,5,20,0.00
2013-11-1,67,64,60,-23,-23,-23,0,0,100,29.91,29.60,30,9,33,0.00
2013-11-2,61,57,53,-23,-33,-40,0,0,100,29.76,29.60,12,2,16,0.00
2013-11-3,55,48,44,-40,-40,-40,0,0,100,30.38,29.73,23,8,27,0.00
2013-11-4,45,42,40,-40,-40,-40,0,0,100,30.75,30.38,22,7,25,0.00
2013-11-5,50,44,39,-40,-40,-40,0,0,100,30.74,30.60,8,1,9,0.00
2013-11-6,58,51,40,-40,-40,-40,0,0,100,30.62,30.14,15,2,15,0.00
2013-11-7,65,58,48,-23,-31,-40,0,0,100,30.14,29.72,25,7,28,0.00
2013-11-8,50,45,41,-40,-40,-40,0,0,100,30.17,29.85,31,12,31,0.00
2013-11-9,48,43,39,-40,-40,-40,0,0,100,30.28,30.15,27,7,27,0.00
2013-11-10,59,53,48,-23,-39,-40,0,0,100,30.15,29.76,31,7,36,0.00
2013-11-11,54,48,44,-40,-40,-40,0,0,100,30.16,29.93,29,9,31,0.00
2013-11-12,55,42,32,-40,-40,-40,0,0,100,30.26,29.93,28,9,28,0.00
2013-11-13,37,34,30,-40,-40,-40,0,0,100,30.35,30.25,23,8,23,0.00
2013-11-14,51,46,34,-40,-40,-40,0,0,100,30.31,30.13,26,6,26,0.00
2013-11-15,59,54,50,-23,-40,-40,0,0,100,30.27,30.20,19,4,19,0.00
2013-11-16,58,51,44,-40,-40,-40,0,0,100,30.38,30.25,11,1,11,0.00
2013-11-17,59,53,44,-23,-40,-40,0,0,100,30.40,29.92,19,5,19,0.00
2013-11-18,61,58,52,-23,-32,-40,0,0,100,29.92,29.62,29,7,29,0.00
2013-11-19,53,44,37,-40,-40,-40,0,0,100,30.34,29.69,29,10,29,0.00
2013-11-20,42,38,34,-40,-40,-40,0,0,100,30.65,30.34,23,8,25,0.00
2013-11-21,48,42,38,-40,-40,-40,0,0,100,30.68,30.49,11,2,11,0.00
2013-11-22,54,50,42,-40,-40,-40,0,0,100,30.49,29.90,15,3,15,0.00
2013-11-23,52,46,36,-40,-40,-40,0,0,100,29.94,29.82,32,8,32,0.00
2013-11-24,36,28,25,-40,-40,-40,0,0,100,30.28,29.85,49,15,49,0.00
2013-11-25,42,28,23,-40,-40,-40,0,0,100,30.50,30.26,40,8,40,0.00
2013-11-26,51,45,42,-40,-40,-40,0,0,100,30.40,30.08,19,3,19,0.00
2013-11-27,61,55,42,-23,-36,-40,0,0,100,30.08,29.18,32,10,35,0.00
2013-11-28,42,36,30,-40,-40,-40,0,0,100,30.54,29.54,29,9,29,0.00
2013-11-29,37,32,30,-40,-40,-40,0,0,100,30.80,30.54,20,5,20,0.00
2013-11-30,38,33,29,-40,-40,-40,0,0,100,30.84,30.55,17,3,17,0.00
2013-12-1,50,45,38,-40,-40,-40,0,0,100,30.54,30.02,17,4,18,0.00
2013-12-2,46,42,40,-40,-40,-40,0,0,100,30.04,29.95,12,3,12,0.00
2013-12-3,44,42,40,-40,-40,-40,0,0,100,29.98,29.86,20,6,20,0.00
2013-12-4,44,40,35,-40,-40,-40,0,0,100,30.29,29.98,17,3,17,0.00
2013-12-5,56,48,37,-40,-40,-40,0,0,100,30.29,30.01,21,4,23,0.00
2013-12-6,58,51,39,-40,-40,-40,0,0,100,30.18,29.93,24,5,24,0.00
2013-12-7,41,38,35,-40,-40,-40,0,0,100,30.52,30.09,21,8,22,0.00
2013-12-8,36,34,32,-40,-40,-40,0,0,100,30.66,30.52,22,4,22,0.00
2013-12-9,52,43,34,-40,-40,-40,0,0,100,30.55,29.88,25,6,25,0.00
2013-12-10,41,36,32,-40,-40,-40,0,0,100,30.12,29.88,28,6,28,0.00
2013-12-11,35,33,30,-40,-40,-40,0,0,100,30.36,30.12,29,8,29,0.00
2013-12-12,33,26,21,-40,-40,-40,0,0,100,30.38,30.24,26,8,26,0.00
2013-12-13,34,29,24,-40,-40,-40,0,0,100,30.44,30.13,28,8,28,0.00
2013-12-14,34,27,22,-40,-40,-40,0,0,100,30.67,30.20,26,7,26,0.00
2013-12-15,54,40,32,-40,-40,-40,0,0,100,30.20,29.35,29,9,35,0.00
2013-12-16,35,31,26,-40,-40,-40,0,0,100,30.32,29.87,27,9,27,0.00
2013-12-17,44,31,22,-40,-40,-40,0,0,100,30.38,29.91,23,5,23,0.00
2013-12-18,38,33,25,-40,-40,-40,0,0,100,30.20,29.81,32,10,32,0.00
2013-12-19,49,41,33,-40,-40,-40,0,0,100,30.22,30.04,20,6,22,0.00
2013-12-20,54,46,38,-40,-40,-40,0,0,100,30.22,30.02,18,4,24,0.00
2013-12-21,56,52,49,-40,-40,-40,0,0,100,30.06,29.98,22,7,22,0.00
2013-12-22,58,56,51,-40,-40,-40,0,0,100,30.05,29.89,28,8,34,0.00
2013-12-23,57,48,40,-40,-40,-40,0,0,100,30.12,29.96,16,3,17,0.00
2013-12-24,40,36,30,-40,-40,-40,0,0,100,30.28,30.06,26,9,26,0.00
2013-12-25,31,24,20,-40,-40,-40,0,0,100,30.66,30.27,25,7,25,0.00
2013-12-26,43,34,23,-40,-40,-40,0,0,100,30.62,30.08,22,4,22,0.00
2013-12-27,38,34,32,-40,-40,-40,0,0,100,30.37,30.30,19,6,19,0.00
2013-12-28,51,42,30,-40,-40,-40,0,0,100,30.36,30.08,23,4,23,0.00
2013-12-29,55,47,41,-40,-40,-40,0,0,100,30.14,29.35,31,4,31,0.00
2013-12-30,46,39,30,-40,-40,-40,0,0,100,30.21,29.47,28,8,28,0.00
2013-12-31,30,27,24,-40,-40,-40,0,0,100,30.28,30.15,24,6,24,0.00
2014-1-1,31,28,25,-40,-40,-40,0,0,100,30.49,30.28,31,7,32,0.00
2014-1-2,34,31,29,-40,-40,-40,0,0,100,30.44,29.70,40,10,43,0.00